Location: Launois
(49.6535°N, 4.5395°E)
Time: 10:01:13
(UTC+00:00)

Cosmos 1674 Rocket - Pass Details

Date: 23 May 2024
Orbit: 598 x 627 km, 82.5° (Epoch: 14 June)

Event Time Altitude Azimuth Distance (km) Brightness Sun altitude
Exits shadow 02:52:30 - 190° (S) 2,493 6.2 -7.6°
Reaches altitude 10° 02:53:43 10° 190° (S) 1,999 5.7 -7.5°
Maximum altitude 02:58:10 86° 280° (W) 635 3.6 -7.0°
Drops below altitude 10° 03:02:38 10° 9° (N) 2,007 7.1 -6.5°
Sets 03:04:52 0° 10° (N) 2,914 8.0 -6.2°
